Location: Drocourt
(49.0571°N, 1.7669°E)
Time: 15:42:56
(UTC+00:00)

Vanguard 2 Rocket - Pass Details

Date: 18 April 2024
Orbit: 556 x 3304 km, 32.9° (Epoch: 22 May)

Event Time Altitude Azimuth Distance (km) Brightness Sun altitude
Rises 03:06:35 0° 272° (W) 7,286 11.1 -16.4°
Reaches altitude 10° 03:12:33 10° 264° (W) 6,156 10.6 -15.6°
Maximum altitude 03:27:09 30° 214° (SSW) 4,005 9.6 -13.7°
Drops below altitude 10° 03:37:53 10° 160° (SSE) 4,464 10.3 -12.2°
Sets 03:41:24 0° 149° (SSE) 5,082 10.7 -11.8°
